TimeAKST,TemperatureF,Dew PointF,Humidity,Sea Level PressureIn,VisibilityMPH,Wind Direction,Wind SpeedMPH,Gust SpeedMPH,PrecipitationIn,Events,Conditions,WindDirDegrees,DateUTC
12:16 AM,15.8,15.8,100,29.88,10.0,West,11.5,-,N/A,,Clear,260,2013-11-14 09:16:00
12:36 AM,17.6,17.6,100,29.86,10.0,West,9.2,-,N/A,,Clear,270,2013-11-14 09:36:00
12:56 AM,17.6,15.8,93,29.85,10.0,WSW,10.4,-,N/A,,Clear,240,2013-11-14 09:56:00
1:16 AM,19.4,19.4,100,29.85,10.0,WSW,10.4,-,N/A,,Clear,240,2013-11-14 10:16:00
1:36 AM,21.2,19.4,93,29.83,10.0,SW,10.4,-,N/A,,Clear,220,2013-11-14 10:36:00
1:56 AM,21.2,19.4,93,29.82,10.0,West,8.1,-,N/A,,Partly Cloudy,260,2013-11-14 10:56:00
2:16 AM,21.2,21.2,100,29.81,10.0,WSW,5.8,-,N/A,,Scattered Clouds,250,2013-11-14 11:16:00
2:36 AM,24.8,24.8,100,29.79,10.0,SW,11.5,18.4,N/A,,Mostly Cloudy,230,2013-11-14 11:36:00
2:56 AM,24.8,23.0,93,29.78,7.0,SSW,11.5,-,N/A,,Overcast,210,2013-11-14 11:56:00
3:16 AM,24.8,23.0,93,29.77,8.0,SW,17.3,24.2,N/A,,Overcast,220,2013-11-14 12:16:00
3:36 AM,26.6,26.6,100,29.76,5.0,WSW,10.4,23.0,N/A,,Overcast,240,2013-11-14 12:36:00
3:56 AM,26.6,26.6,100,29.74,1.8,WSW,18.4,26.5,N/A,,Overcast,240,2013-11-14 12:56:00
4:16 AM,26.6,26.6,100,29.72,4.0,SW,19.6,27.6,N/A,,Overcast,220,2013-11-14 13:16:00
4:36 AM,26.6,26.6,100,29.72,6.0,SW,16.1,24.2,N/A,,Overcast,230,2013-11-14 13:36:00
4:56 AM,26.6,26.6,100,29.73,4.0,WSW,13.8,20.7,N/A,,Overcast,240,2013-11-14 13:56:00
5:16 AM,28.4,28.4,100,29.72,3.0,WSW,10.4,-,N/A,,Overcast,240,2013-11-14 14:16:00
5:36 AM,26.6,26.6,100,29.70,2.0,WSW,6.9,-,N/A,,Overcast,240,2013-11-14 14:36:00
5:56 AM,28.4,28.4,100,29.68,0.5,Calm,Calm,-,N/A,,Overcast,0,2013-11-14 14:56:00
6:16 AM,28.4,28.4,100,29.68,5.0,SW,12.7,17.3,N/A,,Overcast,220,2013-11-14 15:16:00
6:36 AM,28.4,28.4,100,29.67,0.5,South,8.1,-,N/A,,Overcast,180,2013-11-14 15:36:00
6:56 AM,28.4,28.4,100,29.68,0.8,Calm,Calm,-,N/A,,Overcast,0,2013-11-14 15:56:00
7:16 AM,28.4,28.4,100,29.69,0.2,SSW,4.6,-,N/A,,Overcast,200,2013-11-14 16:16:00
7:36 AM,28.4,28.4,100,29.68,1.2,SSW,9.2,-,N/A,,Overcast,200,2013-11-14 16:36:00
7:56 AM,28.4,26.6,93,29.67,0.2,SW,9.2,-,N/A,,Overcast,230,2013-11-14 16:56:00
8:16 AM,28.4,28.4,100,29.68,0.5,SSW,6.9,-,N/A,,Overcast,210,2013-11-14 17:16:00
8:36 AM,17.6,8.6,68,29.69,10.0,NE,12.7,23.0,N/A,,Overcast,40,2013-11-14 17:36:00
8:56 AM,19.4,15.8,86,29.69,10.0,NNE,10.4,16.1,N/A,,Overcast,30,2013-11-14 17:56:00
9:16 AM,19.4,17.6,93,29.70,10.0,NE,12.7,16.1,N/A,,Overcast,50,2013-11-14 18:16:00
9:36 AM,19.4,17.6,93,29.71,10.0,NNE,6.9,-,N/A,,Overcast,30,2013-11-14 18:36:00
9:56 AM,19.4,17.6,93,29.72,10.0,NE,6.9,-,N/A,,Overcast,40,2013-11-14 18:56:00
10:16 AM,19.4,19.4,100,29.71,4.0,NNE,6.9,-,N/A,,Mostly Cloudy,30,2013-11-14 19:16:00
10:36 AM,19.4,17.6,93,29.72,0.5,NE,6.9,-,N/A,,Overcast,50,2013-11-14 19:36:00
10:56 AM,21.2,19.4,93,29.72,1.8,North,6.9,-,N/A,,Overcast,10,2013-11-14 19:56:00
11:16 AM,21.2,21.2,100,29.72,1.8,NNW,6.9,-,N/A,,Overcast,340,2013-11-14 20:16:00
11:36 AM,21.2,21.2,100,29.72,7.0,North,6.9,-,N/A,,Overcast,360,2013-11-14 20:36:00
11:56 AM,21.2,21.2,100,29.72,10.0,NNE,6.9,-,N/A,,Scattered Clouds,20,2013-11-14 20:56:00
12:16 PM,21.2,21.2,100,29.72,10.0,North,5.8,-,N/A,,Clear,10,2013-11-14 21:16:00
12:36 PM,23.0,21.2,93,29.72,10.0,Calm,Calm,-,N/A,,Clear,0,2013-11-14 21:36:00
12:56 PM,24.8,21.2,86,29.71,10.0,NNE,4.6,-,N/A,,Clear,30,2013-11-14 21:56:00
1:16 PM,23.0,21.2,93,29.72,10.0,ENE,4.6,-,N/A,,Clear,60,2013-11-14 22:16:00
1:36 PM,23.0,21.2,93,29.72,10.0,ENE,4.6,-,N/A,,Clear,60,2013-11-14 22:36:00
1:56 PM,21.2,19.4,93,29.72,10.0,NNE,3.5,-,N/A,,Partly Cloudy,30,2013-11-14 22:56:00
2:16 PM,21.2,19.4,93,29.71,10.0,Calm,Calm,-,N/A,,Clear,0,2013-11-14 23:16:00
2:36 PM,19.4,19.4,100,29.70,10.0,Calm,Calm,-,N/A,,Clear,0,2013-11-14 23:36:00
2:56 PM,23.0,21.2,93,29.70,10.0,WSW,9.2,-,N/A,,Clear,240,2013-11-14 23:56:00
3:16 PM,24.8,19.4,80,29.70,10.0,West,9.2,-,N/A,,Clear,260,2013-11-15 00:16:00
3:36 PM,23.0,17.6,80,29.71,10.0,West,11.5,-,N/A,,Clear,260,2013-11-15 00:36:00
3:56 PM,24.8,17.6,74,29.70,10.0,West,13.8,-,N/A,,Clear,270,2013-11-15 00:56:00
4:16 PM,23.0,15.8,74,29.69,10.0,West,13.8,-,N/A,,Clear,270,2013-11-15 01:16:00
4:36 PM,21.2,15.8,80,29.69,10.0,West,15.0,-,N/A,,Clear,260,2013-11-15 01:36:00
4:56 PM,24.8,15.8,69,29.70,10.0,West,6.9,-,N/A,,Clear,260,2013-11-15 01:56:00
5:16 PM,23.0,14.0,68,29.71,10.0,West,12.7,-,N/A,,Scattered Clouds,270,2013-11-15 02:16:00
5:36 PM,24.8,17.6,74,29.71,10.0,West,15.0,-,N/A,,Overcast,280,2013-11-15 02:36:00
5:56 PM,24.8,17.6,74,29.72,10.0,West,12.7,-,N/A,,Overcast,280,2013-11-15 02:56:00
6:16 PM,24.8,15.8,69,29.73,10.0,West,12.7,-,N/A,,Overcast,280,2013-11-15 03:16:00
6:36 PM,24.8,15.8,69,29.74,10.0,West,11.5,-,N/A,,Overcast,280,2013-11-15 03:36:00
6:56 PM,24.8,15.8,69,29.74,10.0,West,9.2,-,N/A,,Overcast,280,2013-11-15 03:56:00
7:16 PM,24.8,15.8,69,29.74,10.0,West,11.5,-,N/A,,Overcast,270,2013-11-15 04:16:00
7:36 PM,23.0,15.8,74,29.73,10.0,West,10.4,-,N/A,,Scattered Clouds,260,2013-11-15 04:36:00
7:56 PM,21.2,12.2,68,29.74,10.0,West,10.4,-,N/A,,Clear,270,2013-11-15 04:56:00
8:16 PM,23.0,15.8,74,29.75,10.0,WNW,9.2,-,N/A,,Clear,290,2013-11-15 05:16:00
8:36 PM,21.2,12.2,68,29.74,10.0,West,10.4,-,N/A,,Clear,280,2013-11-15 05:36:00
8:56 PM,19.4,12.2,74,29.75,10.0,West,11.5,-,N/A,,Clear,280,2013-11-15 05:56:00
9:16 PM,19.4,10.4,68,29.75,10.0,West,11.5,-,N/A,,Clear,260,2013-11-15 06:16:00
9:56 PM,19.4,14.0,80,29.78,10.0,West,8.1,-,N/A,,Partly Cloudy,260,2013-11-15 06:56:00
10:16 PM,17.6,10.4,73,29.78,10.0,WSW,6.9,-,N/A,,Partly Cloudy,250,2013-11-15 07:16:00
10:36 PM,17.6,12.2,79,29.79,10.0,West,8.1,-,N/A,,Clear,280,2013-11-15 07:36:00
10:56 PM,19.4,10.4,68,29.80,10.0,WNW,6.9,-,N/A,,Partly Cloudy,290,2013-11-15 07:56:00
11:16 PM,19.4,10.4,68,29.80,10.0,Calm,Calm,-,N/A,,Scattered Clouds,0,2013-11-15 08:16:00
11:36 PM,21.2,10.4,63,29.81,10.0,NNE,8.1,-,N/A,,Mostly Cloudy,30,2013-11-15 08:36:00
11:56 PM,21.2,12.2,68,29.82,10.0,West,3.5,-,N/A,,Overcast,280,2013-11-15 08:56:00